Weather observations for the past three days for
Marshalltown, Marshalltown Municipal Airport
Imperial (Metric)
Date Time (cdt) Wind (mph) Vis. (mi.) Weather Sky Cond. Temperature (ºF) Relative Humidity Wind Chill (°F) Heat Index (°F) Pressure Precipitation (in)
Air Dwpt 6 hour altimeter (in) sea level (mb) 1 hr 3 hr 6 hr
Max. Min.
13 00:53 NE 8 10.00 Mostly Cloudy BKN090 75.9 63 87.1 75.9 64% 78 29.78 1007.5
12 23:53 S 8 10.00 Thunderstorm in Vicinity SCT085 BKN110 78.1 62.1 58% 80 29.77 1007.1
12 22:53 S 9 10.00 Partly Cloudy SCT100 78.1 62.1 58% 80 29.78 1007.5
12 21:53 S 8 10.00 Fair CLR 78.1 62.1 58% 80 29.78 1007.6
12 20:53 S 10 10.00 Fair CLR 81 61 51% 82 29.77 1007.2
12 19:53 SW 10 10.00 Fair CLR 82.9 61 48% 83 29.79 1007.9
12 18:53 SW 10 10.00 Fair CLR 87.1 62.1 91 82 43% 88 29.81 1008.6
12 17:53 SW 12 10.00 Fair CLR 88 60.1 39% 88 29.82 1009.0
12 16:53 S 13 10.00 Fair CLR 86 62.1 45% 87 29.83 1009.6
12 15:53 SW 10 G 22 10.00 Light Rain FEW039 BKN120 82 62.1 51% 83 29.85 1010.3
12 14:53 SW 16 10.00 Fair CLR 89.1 60.1 38% 89 29.84 1009.7
12 13:53 SW 18 G 31 10.00 Fair CLR 88 60.1 39% 88 29.84 1009.5
12 12:53 SW 20 G 31 10.00 Fair CLR 91 62.1 91 64 38% 92 29.84 1009.7
12 11:53 SW 18 G 28 10.00 Fair CLR 89.1 63 42% 90 29.86 1010.2
12 10:53 S 13 10.00 Fair CLR 84.9 64 50% 86 29.88 1010.8
12 09:53 SW 10 10.00 Fair CLR 82 62.1 51% 83 29.88 1011.0
12 08:53 SW 9 10.00 Fair CLR 78.1 62.1 58% 80 29.88 1011.2
12 07:53 S 5 10.00 Fair CLR 71.1 60.1 68% 29.89 1011.3
12 06:53 SE 5 10.00 Fair CLR 64 57 68 57 78% 29.89 1011.5
12 05:53 SE 3 10.00 Fair CLR 60.1 54 80% 29.9 1011.9
12 04:53 SW 3 10.00 Partly Cloudy SCT095 61 54 78% 29.91 1012.0
12 03:53 SW 5 10.00 Fair CLR 62.1 53.1 73% 29.9 1011.7
12 02:53 Calm 10.00 Fair CLR 63 53.1 70% 29.88 1011.3
12 01:53 Calm 10.00 Fair CLR 64.9 52 63% 29.87 1010.9
12 00:53 W 3 10.00 Fair CLR 68 52 88 64 57% 29.87 1010.8
11 23:53 W 3 10.00 Fair CLR 68 52 57% 29.87 1010.8
11 22:53 W 3 10.00 Fair CLR 72 50 46% 29.86 1010.5
11 21:53 W 3 10.00 Fair CLR 75 50 42% 78 29.85 1010.1
11 20:53 NW 5 10.00 Fair CLR 75.9 50 40% 78 29.84 1009.6
11 19:53 NW 10 10.00 A Few Clouds FEW100 84.9 51.1 31% 83 29.83 1009.3
11 18:53 NW 9 10.00 Partly Cloudy SCT095 87.1 54 89.1 80.1 32% 85 29.82 1009.0
11 17:53 NW 13 8.00 Fair CLR 88 54 31% 86 29.82 1009.1
11 16:53 W 15 G 25 8.00 A Few Clouds FEW095 88 54 31% 86 29.83 1009.7
11 15:53 W 15 G 23 10.00 A Few Clouds FEW070 87.1 60.1 40% 87 29.84 1010.0
11 14:53 SW 17 G 25 10.00 A Few Clouds FEW060 86 60.1 42% 86 29.86 1010.5
11 13:53 SW 20 G 28 10.00 A Few Clouds FEW050 82 59 46% 82 29.88 1011.3
11 12:53 SW 20 10.00 Partly Cloudy SCT110 80.1 57 80.1 60.1 45% 80 29.9 1011.9
11 11:53 S 17 G 25 10.00 Overcast BKN090 OVC110 73 54 51% 29.89 1011.9
11 10:53 S 6 10.00 Overcast FEW065 BKN080 OVC120 70 52 53% 29.94 1013.3
11 09:53 S 14 10.00 Overcast OVC085 70 48.9 47% 29.95 1013.6
11 08:53 S 12 10.00 Partly Cloudy SCT100 69.1 46.9 45% 29.95 1013.8
11 07:53 S 15 10.00 Fair CLR 64 45 50% 29.96 1014.0
11 05:53 S 9 10.00 Fair CLR 57.9 44.1 60% 29.96 1014.1
11 04:53 SE 6 10.00 Fair CLR 55 44.1 67% 29.96 1014.1
11 03:53 SE 7 10.00 Fair CLR 52 43 72% 29.97 1014.4
11 02:53 S 6 10.00 Fair CLR 54 42.1 64% 29.99 1015.1
11 01:53 SE 5 10.00 Fair CLR 52 43 72% 29.99 1015.2
11 00:53 SE 3 10.00 Fair CLR 55 43 73 54 64% 29.99 1015.4
10 23:53 Calm 10.00 Fair CLR 59 43 56% 30 1015.5
10 22:53 S 3 10.00 Fair CLR 63 39.9 43% 30 1015.5
10 21:53 S 6 10.00 Fair CLR 66 39.9 39% 29.97 1014.7
10 20:53 SE 5 10.00 Fair CLR 68 39.9 36% 29.95 1013.9
10 19:53 S 7 10.00 Fair CLR 71.1 41 34% 29.95 1013.9
10 18:53 SE 8 10.00 Fair CLR 73 41 75.9 70 32% 29.96 1014.1
10 17:53 E 9 10.00 Fair CLR 75 41 29% 77 29.98 1014.8
10 16:53 NE 7 10.00 Fair CLR 75 41 29% 77 29.99 1015.4
10 15:53 E 7 10.00 Fair CLR 75 42.1 31% 77 30.01 1015.8
10 14:53 Vrbl 5 10.00 Fair CLR 72 41 33% 30.02 1016.3
10 13:53 N 6 G 16 10.00 Fair CLR 73 39 29% 30.03 1016.8
10 12:53 E 14 G 21 10.00 Fair CLR 71.1 42.1 72 57.9 35% 30.05 1017.4
10 11:53 Vrbl 5 10.00 Fair CLR 69.1 42.1 38% 30.06 1017.8
10 10:53 NE 12 G 17 10.00 Fair CLR 68 42.1 39% 30.07 1018.0
10 09:53 N 7 10.00 Fair CLR 64 43 46% 30.09 1018.4
10 08:53 NE 9 10.00 Fair CLR 63 44.1 50% 30.08 1018.2
10 07:53 NE 13 10.00 Fair CLR 60.1 43 53% 30.08 1018.1
10 06:53 N 8 10.00 Fair CLR 57.9 51.1 57.9 53.1 78% 30.06 1017.4
10 05:53 N 7 10.00 Fair CLR 55 50 83% 30.04 1017.0
10 04:53 N 6 10.00 Fair CLR 55 48.9 80% 30.03 1016.4
10 03:53 N 8 10.00 Fair CLR 55 48 77% 30.03 1016.3
10 02:53 N 6 10.00 Fair CLR 54 46.9 77% 30.02 1016.0
10 01:53 N 7 10.00 Fair CLR 55.9 48 75% 30.01 1015.9
Date Time (cdt) Wind (mph) Vis. (mi.) Weather Sky Cond. Air Dwpt Max. Min. Relative Humidity Wind Chill (°F) Heat Index (°F) altimeter (in) sea level (mb) 1 hr 3 hr 6 hr
6 hour
Temperature (ºF) Pressure Precipitation (in)